Location: ??? ?????
(30.6482°N, 60.5850°E)
Time: 18:40:26
(UTC+00:00)

Cosmos 1726 Rocket - Pass Details

Date: 09 April 2020
Orbit: 602 x 631 km, 82.5° (Epoch: 05 June)

Event Time Altitude Azimuth Distance (km) Brightness Sun altitude
Rises 15:36:55 0° 194° (SSW) 2,869 6.9 -16.4°
Reaches altitude 10° 15:39:09 10° 198° (SSW) 1,973 6.1 -16.9°
Maximum altitude 15:43:27 57° 278° (W) 730 4.2 -17.7°
Drops below altitude 10° 15:47:49 10° 357° (N) 2,001 6.5 -18.6°
Sets 15:50:06 0° 1° (N) 2,915 7.3 -19.1°
